Mitchell, SD

12:10 AM CST on February 12, 2016 (GMT -0600)
Mitchell Municipal

Weather History for KMHE - June, 2014

Change the Weather History Date:

Monday, June 9, 2014

  Actual Average Record
Temperature  
Mean Temperature 63 °F 67 °F  
Max Temperature 71 °F 78 °F 99 °F (2015)
Min Temperature 54 °F 56 °F 38 °F (1915)
Degree Days  
Heating Degree Days 2 2  
Month to date heating degree days 21 21  
Since 1 June heating degree days 21 21  
Since 1 July heating degree days 7786 7231  
Cooling Degree Days 0 4  
Month to date cooling degree days 23 28  
Year to date cooling degree days 101 68  
Since 1 June cooling degree days 23 28  
Growing Degree Days 12 (Base 50)    
Moisture  
Dew Point 54 °F    
Average Humidity 77    
Maximum Humidity 100    
Minimum Humidity 53    
Precipitation  
Precipitation 0.15 in 0.14 in 2.24 in (2005)
Month to date precipitation 1.21 1.33  
Year to date precipitation 5.94 8.06  
Snow  
Snow 0.00 in - 0.00 in ()
Month to date snowfall 0.0  
Since 1 June snowfall 0.0  
Since 1 July snowfall 30.8  
Snow Depth 0.00 in    
Sea Level Pressure  
Sea Level Pressure 30.02 in    
Wind  
Wind Speed 7 mph (ENE)    
Max Wind Speed 12 mph    
Max Gust Speed 14 mph    
Visibility 10 miles    
Events Rain    
T = Trace of Precipitation, MM = Missing Value Source: NWS Daily Summary

Daily Weather History Graph

Daily Weather History Graph

Search for Another Location

Airport or City:

Trip Planner

Search our weather history database for the weather conditions in past years. The results will help you decide how hot, cold, wet, or windy it might be!

Date:

Astronomy

Jun. 09, 2014 Rise Set
Actual Time 5:50 AM CDT 9:12 PM CDT
Civil Twilight 5:14 AM CDT 9:48 PM CDT
Nautical Twilight 4:27 AM CDT 10:35 PM CDT
Astronomical Twilight 3:29 AM CDT 11:34 PM CDT
Moon 5:29 PM CDT (6/9) 3:25 AM CDT (6/9)
Length of Visible Light 16h 34m
Length of Day
15h 22m
Waxing Gibbous, 85% of the Moon is Illuminated
Jun 9
Waxing Gibbous
Jun 12
Full
Jun 19
Last Quarter
Jun 27
New
Jul 5
First Quarter

Hourly Weather History & Observations

Time (CDT) Temp. Dew Point Humidity Pressure Visibility Wind Dir Wind Speed Gust Speed Precip Events Conditions
12:53 AM 55.9 °F 53.1 °F 90% 30.06 in 10.0 mi North 6.9 mph - 0.01 in Rain Light Rain
1:53 AM 55.0 °F 52.0 °F 89% 30.06 in 10.0 mi North 9.2 mph - 0.01 in Rain Light Rain
2:53 AM 55.0 °F 52.0 °F 89% 30.06 in 10.0 mi North 8.1 mph - 0.03 in Rain Light Rain
3:53 AM 54.0 °F 52.0 °F 93% 30.04 in 10.0 mi North 8.1 mph - 0.03 in Rain Light Rain
4:53 AM 54.0 °F 52.0 °F 93% 30.04 in 10.0 mi NNE 6.9 mph - 0.01 in Rain Light Rain
5:53 AM 54.0 °F 52.0 °F 93% 30.05 in 8.0 mi North 8.1 mph - 0.04 in Rain Light Rain
6:53 AM 54.0 °F 53.1 °F 97% 30.05 in 10.0 mi NE 6.9 mph - 0.03 in Rain Light Rain
7:53 AM 55.0 °F 52.0 °F 89% 30.06 in 10.0 mi ENE 10.4 mph - 0.00 in   Mostly Cloudy
8:53 AM 55.9 °F 52.0 °F 87% 30.06 in 10.0 mi ENE 10.4 mph - N/A   Mostly Cloudy
10:53 AM 59.0 °F 53.1 °F 81% 30.06 in 10.0 mi ENE 11.5 mph - N/A   Clear
11:53 AM 64.0 °F 54.0 °F 70% 30.05 in 10.0 mi NE 8.1 mph - N/A   Partly Cloudy
12:53 PM 66.0 °F 55.9 °F 70% 30.04 in 10.0 mi NE 8.1 mph - N/A   Partly Cloudy
1:53 PM 66.9 °F 55.0 °F 66% 30.03 in 10.0 mi Variable 4.6 mph - N/A   Mostly Cloudy
3:53 PM 69.1 °F 55.0 °F 61% 30.00 in 10.0 mi South 4.6 mph - N/A   Partly Cloudy
4:53 PM 71.1 °F 55.0 °F 57% 29.99 in 10.0 mi East 8.1 mph - N/A   Mostly Cloudy
5:53 PM 70.0 °F 54.0 °F 57% 29.98 in 10.0 mi East 4.6 mph - N/A   Scattered Clouds
6:53 PM 71.1 °F 53.1 °F 53% 29.96 in 10.0 mi Variable 4.6 mph - N/A   Partly Cloudy
7:53 PM 70.0 °F 53.1 °F 55% 29.96 in 10.0 mi ESE 5.8 mph - N/A   Clear
8:53 PM 66.0 °F 55.9 °F 70% 29.96 in 10.0 mi South 5.8 mph - N/A   Clear
9:53 PM 63.0 °F 55.0 °F 75% 29.97 in 10.0 mi North - - N/A   Clear
10:53 PM 62.1 °F 55.0 °F 78% 29.97 in 10.0 mi SSW 3.5 mph - N/A   Clear
11:53 PM 60.1 °F 55.0 °F 83% 29.97 in 10.0 mi South 6.9 mph - N/A   Clear